"2020/01/01", 7.9, 8.7, 7.5
"2020/01/02", 7.6, 8.4, 6.8
"2020/01/03", 7.6, 8.1, 6.9
"2020/01/04", 7.7, 8.5, 7.2
"2020/01/05", 7.3, 7.8, 6.9
"2020/01/06", 7.2, 7.8, 6.6
"2020/01/07", 6.8, 7.4, 6.4
"2020/01/08", 6.8, 7.0, 6.6
"2020/01/09", 7.2, 7.9, 6.6
"2020/01/10", 7.5, 7.8, 7.1
"2020/01/11", 7.1, 7.5, 6.8
"2020/01/12", 7.0, 7.3, 6.7
"2020/01/13", 7.4, 8.1, 6.7
"2020/01/14", 8.1, 9.3, 7.2
"2020/01/15", 8.1, 8.4, 7.8
"2020/01/16", 7.6, 8.3, 6.8
"2020/01/17", 7.4, 7.8, 7.1
"2020/01/18", 6.6, 7.4, 5.9
"2020/01/19", 6.4, 7.7, 5.3
"2020/01/20", 7.2, 8.0, 6.5
"2020/01/21", 7.5, 8.2, 6.8
"2020/01/22", 6.7, 7.5, 6.3
"2020/01/23", 6.6, 6.9, 6.4
"2020/01/24", 7.3, 8.7, 6.3
"2020/01/25", 7.3, 8.1, 6.7
"2020/01/26", 6.9, 7.2, 6.7
"2020/01/27", 6.2, 6.7, 6.0
"2020/01/28", 6.2, 6.8, 5.7
"2020/01/29", 7.4, 8.3, 6.7
"2020/01/30", 7.8, 8.5, 7.4
"2020/01/31", 7.9, 8.5, 7.3
"2020/02/01", 7.6, 8.4, 6.7
"2020/02/02", 7.7, 8.3, 7.1
"2020/02/03", 7.9, 8.5, 7.5
"2020/02/04", 7.9, 8.2, 7.4
"2020/02/05", 8.1, 9.4, 7.3
"2020/02/06", 6.9, 8.1, 5.6
"2020/02/07", 6.0, 7.0, 4.5
"2020/02/08", 6.9, 8.2, 6.2
"2020/02/09", 6.6, 7.2, 5.8
"2020/02/10", 6.5, 7.3, 5.7
"2020/02/11", 6.8, 8.0, 5.9
"2020/02/12", 7.2, 8.6, 6.5
"2020/02/13", 7.9, 9.0, 7.4
"2020/02/14", 8.5, 9.9, 7.5
"2020/02/15", 8.5,10.0, 7.4
"2020/02/16", 7.9, 8.3, 7.5
"2020/02/17", 8.6, 9.6, 8.0
"2020/02/18", 8.1, 9.4, 7.4
"2020/02/19", 8.3, 9.8, 7.1
"2020/02/20", 9.1, 9.9, 8.2
"2020/02/21", 9.2,10.4, 8.2
"2020/02/22", 9.3,10.3, 8.6
"2020/02/23", 9.1,10.4, 7.9
"2020/02/24", 8.5,10.0, 7.2
"2020/02/25", 9.0, 9.4, 8.5
"2020/02/26", 8.9, 9.3, 8.5
"2020/02/27", 8.2, 8.6, 7.8
"2020/02/28", 8.6,10.0, 7.1
"2020/02/29", 8.8, 9.4, 8.4
"2020/03/01", 9.9,12.3, 8.8
"2020/03/02", 9.2, 9.8, 8.8
"2020/03/03",10.0,12.3, 8.6
"2020/03/04", 9.5,10.1, 9.1
"2020/03/05", 9.5,10.2, 8.9
"2020/03/06", 9.3,10.3, 8.2
"2020/03/07", 9.3, 9.8, 8.9
"2020/03/08", 8.9, 9.4, 8.5
"2020/03/09", 9.6,10.9, 8.8
"2020/03/10",10.6,11.2,10.2
"2020/03/11",11.5,12.8,10.2
"2020/03/12",11.5,12.5,10.6
"2020/03/13",11.2,11.7,11.0
"2020/03/14",10.1,11.1, 8.7
"2020/03/15",10.2,12.4, 8.2
"2020/03/16",10.3,11.8, 9.6
"2020/03/17", 9.8,10.6, 9.1
"2020/03/18",10.4,11.7, 9.7
"2020/03/19",11.3,13.0,10.0
"2020/03/20",12.1,13.1,11.2
"2020/03/21",12.0,12.8,11.5
"2020/03/22",12.2,13.1,11.5
"2020/03/23",12.1,12.6,11.7
"2020/03/24",11.6,12.2,10.8
"2020/03/25",12.1,15.0,10.3
"2020/03/26",12.8,14.3,11.5
"2020/03/27",13.2,14.9,11.7
"2020/03/28",13.5,14.3,12.1
"2020/03/29",10.8,12.1,10.0
"2020/03/30",11.0,12.2, 9.6
"2020/03/31",11.5,11.8,11.0
"2020/04/01",12.0,12.6,11.4
"2020/04/02",12.9,14.3,12.0
"2020/04/03",13.1,14.4,12.2
"2020/04/04",13.2,14.1,12.7
"2020/04/05",12.6,13.3,12.1
"2020/04/06",12.9,14.2,11.9
"2020/04/07",13.1,14.3,12.2
"2020/04/08",13.9,16.2,12.5
"2020/04/09"," *"," *"," *"
"2020/04/10"," *"," *"," *"
"2020/04/11"," *"," *"," *"
"2020/04/12"," *"," *"," *"
"2020/04/13"," *"," *"," *"
"2020/04/14",12.0,13.4,10.4
"2020/04/15",12.9,14.8,11.9
"2020/04/16",12.7,13.1,12.3
"2020/04/17",13.1,15.4,11.7
"2020/04/18",12.7,13.1,12.5
"2020/04/19",13.2,14.9,12.2
"2020/04/20",12.7,12.9,12.5
"2020/04/21",13.3,14.5,12.6
"2020/04/22",13.8,14.9,13.1
"2020/04/23",13.6,15.1,13.0
"2020/04/24",13.6,14.7,12.4
"2020/04/25",13.8,15.1,12.6
"2020/04/26",14.7,15.6,13.8
"2020/04/27",14.2,14.5,13.8
"2020/04/28",15.0,16.9,13.5
"2020/04/29",15.0,17.1,14.6
"2020/04/30",15.8,18.0,14.4
"2020/05/01",16.6,17.4,15.6
"2020/05/02",16.8,17.4,16.6
"2020/05/03",17.1,18.4,16.4
"2020/05/04",17.9,18.4,17.6
"2020/05/05",18.9,21.8,17.5
"2020/05/06",18.7,19.1,18.3
"2020/05/07",18.5,19.3,17.4
"2020/05/08",18.9,21.7,17.8
"2020/05/09",18.7,19.2,18.0
"2020/05/10",19.1,19.7,18.4
"2020/05/11",20.1,21.4,19.3
"2020/05/12",20.2,21.0,19.7
"2020/05/13",21.1,22.7,19.8
"2020/05/14",20.8,22.7,20.0
"2020/05/15",20.5,20.9,20.2
"2020/05/16",20.5,20.8,20.1
"2020/05/17",22.2,25.4,19.5
"2020/05/18",21.2,22.8,20.8
"2020/05/19",20.5,20.9,19.5
"2020/05/20",18.5,19.4,17.6
"2020/05/21",17.5,18.1,16.6
"2020/05/22",17.5,17.9,16.7
"2020/05/23",18.1,18.6,17.4
"2020/05/24",19.3,21.4,18.2
"2020/05/25",19.8,22.4,18.9
"2020/05/26",19.8,20.4,19.1
"2020/05/27",20.7,21.7,19.8
"2020/05/28",20.9,22.4,20.1
"2020/05/29",21.7,24.1,19.7
"2020/05/30",22.5,25.0,21.6
"2020/05/31",21.7,22.7,21.1
"2020/06/01",21.4,21.6,21.2
"2020/06/02",22.1,23.3,21.3
"2020/06/03",22.7,23.7,21.9
"2020/06/04",23.0,23.7,22.5
"2020/06/05",23.7,26.2,22.5
"2020/06/06",24.4,25.6,23.6
"2020/06/07",23.5,24.2,22.7
"2020/06/08",23.8,25.2,22.6
"2020/06/09",24.0,25.9,23.4
"2020/06/10",24.7,25.6,23.8
"2020/06/11",24.8,25.5,24.0
"2020/06/12",26.0,27.6,24.5
"2020/06/13",25.3,26.6,24.3
"2020/06/14",24.5,24.7,24.2
"2020/06/15",25.7,28.2,24.1
"2020/06/16",25.1,26.2,24.2
"2020/06/17",25.0,26.5,23.3
"2020/06/18",25.0,25.7,24.3
"2020/06/19",24.1,24.9,22.9
"2020/06/20",24.4,26.9,22.4
"2020/06/21",24.0,24.8,23.4
"2020/06/22",22.8,23.6,21.7
"2020/06/23"," *"," *"," *"
"2020/06/24"," *"," *"," *"
"2020/06/25",22.0,22.2,21.6
"2020/06/26",23.0,25.4,21.8
"2020/06/27",23.7,26.0,22.7
"2020/06/28",23.1,23.6,22.7
"2020/06/29",23.6,24.7,22.6
"2020/06/30",24.2,25.0,23.6
"2020/07/01",24.3,24.7,24.0
"2020/07/02",24.4,25.1,23.7
"2020/07/03",24.8,25.8,24.3
"2020/07/04",24.3,24.8,23.7
"2020/07/05",24.4,24.5,24.1
"2020/07/06",24.2,24.5,24.0
"2020/07/07",24.8,25.2,24.2
"2020/07/08",25.2,25.6,25.0
"2020/07/09",25.1,25.3,25.0
"2020/07/10",25.0,25.4,24.7
"2020/07/11",25.7,26.2,25.2
"2020/07/12",25.9,26.9,24.8
"2020/07/13",24.9,25.5,24.3
"2020/07/14",24.5,24.8,23.8
"2020/07/15",24.0,24.4,23.2
"2020/07/16",23.5,24.2,22.7
"2020/07/17",23.0,23.4,22.7
"2020/07/18",22.6,22.8,22.2
"2020/07/19",23.0,24.2,22.6
"2020/07/20",23.5,24.3,22.7
"2020/07/21",24.2,25.5,23.4
"2020/07/22",24.1,24.7,23.8
"2020/07/23",24.1,24.3,24.0
"2020/07/24",24.7,26.5,23.9
"2020/07/25",24.4,24.7,24.1
"2020/07/26",24.6,26.9,24.3
"2020/07/27",24.7,25.2,24.4
"2020/07/28",25.6,26.2,25.1
"2020/07/29",25.2,25.8,24.6
"2020/07/30",24.9,25.8,24.0
"2020/07/31",25.6,26.8,24.9
"2020/08/01",25.9,26.9,25.1
"2020/08/02",26.4,27.7,25.3
"2020/08/03",27.4,29.9,25.9
"2020/08/04",27.6,29.8,26.4
"2020/08/05",27.9,30.8,26.9
"2020/08/06",27.7,28.5,27.2
"2020/08/07",27.9,28.2,27.6
"2020/08/08",27.6,28.1,26.9
"2020/08/09",27.7,28.3,27.1
"2020/08/10",28.8,30.6,27.5
"2020/08/11",28.7,29.3,28.1
"2020/08/12",29.8,31.1,28.6
"2020/08/13",30.8,32.6,29.5
"2020/08/14",30.2,31.0,29.5
"2020/08/15",31.0,32.8,29.8
"2020/08/16",30.5,31.1,30.2
"2020/08/17",30.5,31.3,29.8
"2020/08/18",30.8,31.5,30.2
"2020/08/19",30.8,32.2,29.5
"2020/08/20",30.4,31.0,30.1
"2020/08/21",31.3,33.6,30.1
"2020/08/22",30.9,32.3,29.9
"2020/08/23",30.0,30.6,29.5
"2020/08/24",29.6,30.6,28.7
"2020/08/25",29.6,30.8,28.4
"2020/08/26",30.5,32.3,29.4
"2020/08/27",30.4,31.4,29.7
"2020/08/28",30.4,31.0,30.0
"2020/08/29",30.4,30.8,30.2
"2020/08/30",30.6,32.2,30.1
"2020/08/31",29.4,30.3,28.3
"2020/09/01",28.0,28.5,27.4
"2020/09/02",28.1,28.8,27.5
"2020/09/03",28.7,29.1,28.2
"2020/09/04",29.8,31.5,28.3
"2020/09/05",29.8,30.7,29.1
"2020/09/06",28.6,29.1,28.2
"2020/09/07",28.8,29.5,28.3
"2020/09/08",28.8,29.5,28.2
"2020/09/09",29.7,31.1,28.6
"2020/09/10",29.4,29.9,28.9
"2020/09/11",29.3,30.2,28.5
"2020/09/12",28.2,29.2,27.3
"2020/09/13",27.5,28.4,26.6
"2020/09/14",26.9,27.7,26.0
"2020/09/15",26.6,27.3,26.0
"2020/09/16",26.5,27.4,25.5
"2020/09/17",27.0,28.4,26.0
"2020/09/18",27.1,27.7,26.6
"2020/09/19",26.2,27.0,25.6
"2020/09/20",25.1,25.7,24.6
"2020/09/21",24.9,25.5,24.4
"2020/09/22",24.5,25.2,23.8
"2020/09/23",23.8,24.3,22.8
"2020/09/24",22.6,23.4,22.0
"2020/09/25",22.2,22.6,21.7
"2020/09/26",21.9,22.4,21.3
"2020/09/27",21.7,22.5,20.9
"2020/09/28",22.5,23.9,21.7
"2020/09/29",21.9,22.4,21.0
"2020/09/30",21.2,22.2,19.8
"2020/10/01",21.1,21.4,20.5
"2020/10/02"," *"," *"," *"
"2020/10/03",22.2,23.6,21.1
"2020/10/04",21.9,22.6,21.4
"2020/10/05",21.7,22.0,21.2
"2020/10/06",21.4,22.6,20.8
"2020/10/07",20.6,21.1,20.1
"2020/10/08",19.5,20.4,18.8
"2020/10/09",18.7,19.1,18.4
"2020/10/10",18.9,19.5,18.2
"2020/10/11",19.5,20.2,18.8
"2020/10/12",19.9,20.2,19.4
"2020/10/13",20.5,21.2,20.0
"2020/10/14",20.3,20.8,19.9
"2020/10/15",19.6,20.0,18.8
"2020/10/16",18.0,18.9,17.3
"2020/10/17",17.2,17.9,16.6
"2020/10/18",17.4,18.2,16.3
"2020/10/19",17.6,18.0,17.0
"2020/10/20",17.5,18.0,16.8
"2020/10/21",17.1,17.7,16.4
"2020/10/22",17.7,18.4,16.8
"2020/10/23",17.9,18.1,17.7
"2020/10/24",18.0,18.8,17.6
"2020/10/25",17.8,18.6,17.2
"2020/10/26",18.1,19.3,17.2
"2020/10/27",17.7,18.2,17.3
"2020/10/28",17.6,18.3,16.6
"2020/10/29",17.8,19.1,17.0
"2020/10/30",17.0,17.5,16.1
"2020/10/31",16.3,16.9,15.4
"2020/11/01",16.6,17.7,15.7
"2020/11/02",16.7,17.0,16.4
"2020/11/03",16.6,16.8,16.4
"2020/11/04",15.9,16.5,15.3
"2020/11/05",16.1,17.9,14.9
"2020/11/06",15.8,16.3,15.5
"2020/11/07",15.8,16.6,15.2
"2020/11/08",16.5,17.1,16.0
"2020/11/09",16.0,16.8,14.9
"2020/11/10",14.8,15.4,14.1
"2020/11/11"," *"," *"," *"
"2020/11/12"," *"," *"," *"
"2020/11/13"," *"," *"," *"
"2020/11/14"," *"," *"," *"
"2020/11/15"," *"," *"," *"
"2020/11/16"," *"," *"," *"
"2020/11/17"," *"," *"," *"
"2020/11/18"," *"," *"," *"
"2020/11/19"," *"," *"," *"
"2020/11/20",16.1,16.8,15.6
"2020/11/21",15.9,16.7,15.4
"2020/11/22",15.2,15.6,14.3
"2020/11/23",15.2,15.8,14.8
"2020/11/24",14.3,14.9,13.8
"2020/11/25",13.5,14.1,13.2
"2020/11/26",14.2,15.3,13.0
"2020/11/27",13.8,14.5,13.3
"2020/11/28",13.3,14.0,12.4
"2020/11/29",12.7,13.1,12.3
"2020/11/30",12.8,13.5,12.1
"2020/12/01",12.6,13.2,11.8
"2020/12/02",11.6,12.4,11.1
"2020/12/03",11.1,11.5,10.7
"2020/12/04",11.5,12.6,10.4
"2020/12/05",10.5,11.3, 9.8
"2020/12/06",10.5,11.2, 9.7
"2020/12/07",11.1,12.4,10.2
"2020/12/08",11.3,12.0,10.6
"2020/12/09",10.9,11.2,10.7
"2020/12/10",10.3,10.7, 9.9
"2020/12/11",10.5,11.4, 9.7
"2020/12/12",11.1,11.4,10.7
"2020/12/13",10.8,11.4,10.5
"2020/12/14"," *"," *"," *"
"2020/12/15"," *"," *"," *"
"2020/12/16", 8.1, 8.8, 7.1
"2020/12/17", 7.0, 7.7, 6.2
"2020/12/18", 7.2, 8.3, 6.1
"2020/12/19", 7.1, 7.7, 6.5
"2020/12/20", 6.2, 6.8, 5.7
"2020/12/21", 5.8, 6.7, 4.7
"2020/12/22", 6.4, 7.3, 5.3
"2020/12/23", 6.8, 7.5, 6.1
"2020/12/24", 7.0, 7.3, 6.6
"2020/12/25", 7.0, 7.7, 6.4
"2020/12/26", 6.8, 7.7, 6.1
"2020/12/27", 6.9, 7.3, 6.4
"2020/12/28", 7.3, 7.8, 7.0
"2020/12/29", 7.4, 7.8, 7.0
"2020/12/30", 7.3, 7.5, 6.7
